Wetbulb
77.69 74.02 71.16 70.67 70.98 75.01 76.68 77.83 78.34 79.23 79.16 79.58 81.28 80.86 80.19 78.70 78.62 78.77 77.55 78.13 76.72 76.91 77.37 76.73 75.92 76.45 75.33 74.73 75.28 73.97 73.06 73.62 69.36 71.47 72.77 73.32 70.62 70.11 69.97 72.48 73.60 73.59 73.20
78.98 77.91 75.17 77.27 78.84 78.73 80.44 79.64 79.62 79.08 80.19 79.87 80.14 80.54 80.37 78.96 79.03 77.65 77.04 77.01 76.02 75.47 75.96 75.79 75.42 73.88 72.77 72.82 73.55 73.80 73.05 73.82 70.55 68.77 71.62 71.49 70.50 70.27 73.24 72.57 73.72 74.63 72.66
78.36 78.22 80.08 81.49 81.20 79.66 79.74 80.19 80.31 80.17 80.22 79.91 79.77 79.18 79.38 78.83 77.89 77.27 77.05 76.11 76.30 75.84 75.60 74.87 73.82 71.37 70.47 70.37 72.16 73.12 72.90 72.30 70.97 69.84 68.74 71.03 70.80 72.35 71.16 71.62 71.85 71.61 72.07
75.28 75.91 77.49 77.58 77.97 77.85 79.29 80.75 80.35 79.93 79.31 79.44 79.41 79.16 79.22 78.52 77.56 76.97 75.79 75.42 75.21 74.83 74.92 73.61 72.13 69.74 69.97 69.62 72.10 71.55 72.10 70.62 69.68 68.94 67.16 67.59 68.13 69.27 69.99 68.49 65.31 67.55 66.89
73.14 73.55 74.90 76.43 76.89 76.98 77.47 77.82 78.68 79.51 78.97 79.08 78.41 78.66 78.68 77.32 76.17 75.57 74.59 73.84 73.61 72.90 72.83 71.21 71.34 69.36 68.48 68.64 69.54 68.73 69.07 68.79 68.22 66.59 65.17 64.87 64.87 65.01 64.37 65.22 64.30 64.95 67.12
70.99 70.85 72.29 72.93 74.28 75.19 75.39 76.24 76.48 76.46 77.55 77.91 77.30 77.68 77.32 75.67 69.72 69.35 72.67 73.21 73.18 71.87 70.33 71.02 68.99 68.12 66.96 65.93 66.74 67.59 68.29 66.64 65.60 64.92 65.39 62.89 62.07 61.53 61.27 60.59 60.35 58.84 57.87
71.20 71.26 71.25 71.56 71.29 71.81 73.94 74.17 74.63 73.92 74.09 73.96 74.19 76.19 75.54 74.58 66.20 66.88 68.57 71.69 72.39 71.72 71.98 69.58 69.56 69.18 68.99 67.35 64.80 65.07 65.25 65.45 66.62 66.40 64.62 63.23 61.38 61.84 60.60 59.91 61.26 60.42 59.44
69.07 69.43 69.93 69.96 69.71 70.33 70.36 70.75 73.14 74.17 73.24 73.12 72.60 73.51 71.96 69.32 64.38 64.68 66.85 72.30 72.20 72.46 71.57 71.04 70.37 69.35 66.73 68.53 66.89 65.98 65.48 63.62 65.86 66.27 65.41 64.32 64.12 64.65 62.93 63.58 63.20 62.70 63.07
67.30 67.48 67.58 68.04 67.74 67.75 67.84 68.79 69.60 71.78 71.50 73.32 73.61 72.20 70.27 65.74 61.93 62.09 65.94 71.58 71.24 70.50 70.69 70.06 70.00 67.55 59.62 59.72 67.44 62.48 60.61 59.32 59.26 60.04 60.72 60.68 61.08 61.22 63.31 64.05 62.53 61.89 61.09
64.85 64.79 65.88 66.69 66.37 65.89 66.74 67.43 68.22 68.64 70.58 71.95 72.24 71.41 66.89 66.04 60.37 60.22 63.15 71.22 69.24 66.95 64.66 62.29 62.61 61.82 56.93 58.00 66.30 65.30 59.02 59.52 59.03 59.08 58.83 59.12 61.10 59.91 61.34 64.10 62.33 59.38 59.41
64.36 65.14 65.81 65.53 65.20 65.47 64.94 65.81 66.85 67.50 68.55 69.63 69.81 69.19 70.45 67.45 65.11 58.60 58.92 66.16 67.24 65.52 64.09 60.39 57.48 55.11 54.66 56.69 58.24 65.92 63.17 64.04 63.29 62.14 62.33 62.47 62.26 61.51 62.70 62.96 62.25 60.29 57.96
63.57 62.61 62.50 62.83 63.38 64.14 63.24 63.16 65.38 66.38 66.96 67.65 68.15 65.17 68.40 66.75 60.64 58.00 57.93 58.54 63.22 64.36 63.25 60.24 56.90 53.57 53.67 55.89 58.47 56.72 59.36 60.16 62.75 61.90 61.54 61.30 61.83 60.68 61.27 61.33 61.84 61.47 61.39
60.73 59.42 60.08 60.01 59.07 57.27 58.65 63.35 65.09 66.38 66.07 66.46 64.26 63.80 61.93 60.23 58.30 55.92 55.94 57.88 59.02 60.52 58.96 56.89 53.81 51.43 51.82 54.28 54.83 55.81 55.68 59.28 61.77 61.02 60.22 59.03 60.00 60.50 60.80 61.38 62.52 62.27 62.24
59.48 58.89 59.62 59.50 59.05 54.92 53.01 55.02 62.57 66.19 63.24 62.49 60.06 56.78 56.12 56.02 57.24 58.89 58.96 58.13 56.57 56.84 56.65 57.25 57.11 56.93 56.77 57.59 57.27 57.61 58.44 57.48 59.16 59.07 58.78 59.64 60.28 60.18 60.02 59.28 58.56 58.79 58.40
61.59 59.71 58.79 57.87 58.42 56.58 53.61 48.77 52.38 51.36 56.58 59.65 57.95 55.86 54.52 53.71 53.50 51.97 55.60 58.54 58.36 56.41 57.02 57.98 56.73 59.21 58.35 58.49 59.84 60.15 57.52 57.70 58.57 58.63 59.07 58.72 58.49 58.30 58.93 59.04 58.43 57.86 55.98
60.22 58.89 57.09 55.73 55.05 55.38 54.62 54.14 50.90 48.01 46.87 46.49 47.63 51.96 51.31 48.70 46.69 45.70 45.90 47.05 48.05 52.20 58.05 56.85 57.22 57.91 58.78 59.15 58.12 58.60 55.76 57.19 58.12 58.69 58.78 58.73 58.11 58.11 56.68 57.90 57.43 56.44 54.97
59.63 58.81 57.94 55.14 54.01 52.99 53.27 52.47 51.43 52.16 49.75 45.07 44.54 43.76 44.41 45.00 45.62 45.21 45.50 47.70 49.04 50.51 53.95 56.86 57.97 59.64 58.99 59.59 59.30 57.64 57.39 57.72 57.58 58.31 56.88 57.30 57.31 56.55 54.51 56.33 56.22 55.72 54.97
60.55 54.91 58.00 56.40 54.49 53.11 52.63 52.27 52.45 50.94 49.38 48.95 45.92 43.99 42.68 43.20 43.81 43.85 44.03 50.62 53.33 53.82 54.96 55.90 57.57 57.99 58.13 58.43 58.33 57.33 57.46 58.06 58.18 58.79 57.89 57.41 57.56 57.21 56.37 55.90 55.97 55.32 53.92
61.28 59.76 58.97 56.90 55.43 53.57 53.12 52.64 52.45 51.87 51.97 51.98 52.98 50.20 45.97 42.91 44.48 45.35 44.31 50.78 54.17 55.58 56.82 56.72 57.43 58.23 57.85 58.72 58.52 59.13 57.96 57.46 57.38 57.79 57.30 57.24 57.46 56.63 55.99 55.32 54.45 49.76 50.98
60.06 59.01 59.30 60.01 57.43 55.87 55.15 53.49 53.49 52.70 51.76 51.76 52.34 52.97 55.50 51.49 54.47 55.68 55.14 54.98 55.22 56.64 57.04 57.19 58.04 58.91 58.43 58.14 58.61 59.44 59.10 56.14 58.30 57.13 56.67 57.74 57.97 56.46 54.88 54.97 55.19 54.76 53.82
60.96 58.95 58.97 58.22 58.17 58.49 57.86 57.74 57.05 55.85 54.89 54.76 56.32 55.25 51.47 55.51 55.28 56.24 56.59 56.77 56.89 57.42 58.01 58.07 58.38 59.26 59.26 59.10 59.80 57.82 58.66 57.65 58.59 57.90 57.31 56.27 56.25 54.56 56.30 55.96 55.51 55.04 55.17
60.83 59.76 57.59 57.14 58.44 57.63 59.54 57.03 56.14 55.97 55.48 56.25 57.48 57.67 47.39 53.84 54.38 54.77 56.20 56.68 57.09 58.14 59.11 57.88 58.45 59.10 58.87 58.82 58.29 57.14 55.71 57.96 58.13 57.92 57.30 57.12 56.97 56.21 55.52 55.48 55.43 54.80 54.27
60.08 59.49 59.66 57.30 59.68 57.03 57.97 58.56 58.77 58.63 56.44 55.85 56.36 56.77 55.08 54.78 54.94 56.13 57.12 56.99 57.91 58.37 58.14 60.08 58.67 57.98 59.23 58.80 60.13 60.45 58.56 58.26 58.36 58.48 58.04 57.64 57.37 55.98 55.20 53.20 53.63 52.59 53.91
59.50 59.44 58.93 59.13 58.17 58.16 58.40 58.74 58.37 53.67 58.24 58.70 58.18 57.79 56.82 57.41 56.58 56.99 58.98 59.93 60.30 60.88 61.02 61.52 60.99 60.97 61.45 59.98 60.38 59.26 57.90 59.04 59.03 56.87 57.36 55.39 56.54 55.05 55.39 54.99 54.66 53.86 53.92
57.50 59.52 59.04 58.06 58.80 58.83 58.22 59.08 59.54 57.93 56.78 56.29 57.45 58.84 59.68 59.36 58.27 58.19 59.38 57.97 57.27 58.86 57.13 59.99 58.23 60.89 60.10 57.30 59.44 56.44 42.91 35.73 52.65 45.28 57.64 57.25 56.33 56.12 55.62 55.31 54.98 54.45 54.29
57.88 59.39 58.98 59.13 59.68 59.96 60.64 60.25 60.05 60.24 59.61 59.73 60.14 59.97 59.15 57.23 56.48 57.21 59.47 60.70 58.21 60.37 57.74 59.80 61.23 61.55 61.62 56.82 54.05 41.00 34.80 33.10 43.09 36.54 48.90 52.17 51.47 51.23 51.33 51.80 52.28 51.70 52.32
MSLP
1004.65 1006.00 1006.34 1006.70 1006.40 1006.34 1007.11 1007.32 1007.18 1006.75 1006.41 1006.37 1006.22 1006.14 1006.27 1006.62 1006.74 1006.96 1007.20 1007.65 1008.15 1008.62 1008.83 1008.91 1009.08 1009.15 1009.31 1009.24 1009.05 1009.19 1009.16 1009.04 1009.11 1008.90 1009.41 1009.99 1010.53 1010.71 1010.86 1010.49 1010.40 1010.51 1010.87
1004.95 1005.54 1006.05 1006.07 1006.03 1005.93 1006.03 1006.08 1006.18 1006.10 1005.81 1005.91 1005.84 1005.89 1006.09 1006.27 1006.43 1006.72 1007.00 1007.28 1007.89 1008.40 1008.51 1008.70 1008.81 1008.95 1009.15 1009.21 1008.76 1008.82 1008.98 1008.73 1008.77 1008.82 1009.09 1009.50 1009.73 1010.21 1009.77 1009.89 1010.43 1009.98 1010.81
1005.45 1005.44 1005.52 1005.53 1005.61 1005.76 1005.88 1005.90 1005.84 1005.55 1005.31 1005.23 1005.36 1005.33 1005.61 1005.79 1006.24 1006.43 1006.74 1007.32 1007.74 1007.94 1008.22 1008.63 1008.88 1009.02 1009.08 1009.14 1008.55 1008.34 1008.50 1008.37 1008.39 1008.81 1009.09 1008.92 1009.26 1009.18 1009.50 1009.91 1010.24 1010.69 1010.72
1005.98 1005.94 1005.92 1006.03 1006.04 1005.96 1005.65 1005.11 1004.87 1004.71 1004.70 1004.71 1004.87 1004.94 1005.14 1005.42 1005.89 1006.31 1006.85 1007.25 1007.71 1007.96 1008.38 1008.65 1008.89 1009.10 1009.81 1008.96 1008.42 1008.31 1008.17 1008.41 1008.64 1008.99 1008.65 1009.44 1009.52 1009.66 1009.69 1010.48 1011.25 1010.98 1011.29
1006.41 1006.40 1006.23 1006.02 1005.77 1005.52 1005.31 1005.03 1004.75 1004.40 1004.20 1004.15 1004.40 1004.52 1004.67 1004.98 1005.37 1006.05 1006.53 1007.08 1007.66 1008.10 1008.39 1008.53 1008.53 1008.82 1009.48 1009.43 1008.51 1008.52 1008.58 1008.81 1009.02 1009.43 1009.66 1009.49 1010.33 1010.57 1010.89 1011.01 1011.31 1011.64 1011.89
1006.80 1006.71 1006.45 1006.16 1005.88 1005.50 1005.24 1005.00 1004.72 1004.57 1004.25 1004.12 1004.09 1004.10 1004.42 1004.61 1005.00 1005.70 1006.07 1006.88 1007.40 1007.92 1008.19 1008.33 1008.62 1009.25 1009.75 1009.69 1008.92 1008.75 1008.64 1008.92 1009.22 1009.70 1010.07 1010.58 1010.88 1011.21 1011.46 1011.72 1011.95 1012.18 1012.35
1006.77 1006.66 1006.48 1006.24 1005.94 1005.54 1005.12 1004.71 1004.57 1004.43 1004.30 1004.27 1004.16 1003.95 1004.10 1004.35 1004.75 1005.30 1005.82 1006.60 1006.93 1007.25 1007.58 1007.90 1007.78 1007.84 1008.76 1009.63 1009.74 1009.19 1008.97 1009.12 1009.11 1009.42 1010.16 1010.72 1011.00 1011.38 1011.56 1011.72 1011.95 1012.12 1012.21
1006.78 1006.72 1006.55 1006.16 1005.74 1005.35 1005.09 1004.80 1004.32 1004.06 1003.91 1003.76 1003.69 1003.75 1004.22 1004.53 1004.98 1005.44 1005.94 1006.20 1006.50 1006.87 1007.33 1007.60 1007.89 1007.96 1008.44 1008.76 1009.19 1009.52 1009.64 1009.85 1009.72 1009.48 1009.83 1010.24 1010.61 1010.96 1011.17 1011.39 1011.63 1011.86 1011.94
1007.23 1007.26 1006.95 1006.52 1006.02 1005.56 1005.03 1004.64 1004.25 1003.89 1003.56 1003.40 1003.36 1003.55 1003.89 1004.87 1005.31 1005.66 1005.83 1006.02 1006.34 1006.65 1007.11 1007.38 1007.73 1008.21 1008.77 1008.78 1008.75 1009.39 1010.22 1010.65 1010.44 1009.98 1009.89 1010.13 1010.31 1010.55 1010.96 1011.50 1011.73 1011.83 1011.82
1008.04 1007.78 1007.36 1006.87 1006.32 1005.69 1005.04 1004.55 1004.06 1003.84 1003.56 1003.20 1003.25 1003.14 1003.65 1004.67 1004.89 1005.37 1005.70 1005.81 1006.43 1006.98 1007.33 1007.63 1007.86 1008.41 1008.90 1008.82 1008.80 1009.37 1010.00 1010.60 1010.76 1010.92 1010.78 1010.83 1010.67 1010.85 1010.92 1011.30 1011.47 1011.76 1011.79
1008.24 1007.69 1007.14 1006.62 1005.98 1005.38 1004.85 1004.35 1004.01 1003.69 1003.49 1003.19 1003.22 1003.29 1003.49 1003.83 1004.85 1005.11 1005.58 1006.14 1006.12 1006.68 1007.34 1008.06 1008.42 1008.66 1009.02 1009.00 1009.10 1009.01 1009.74 1010.14 1010.57 1010.73 1010.59 1010.72 1010.70 1010.91 1011.06 1011.51 1011.78 1012.05 1012.19
1008.51 1007.98 1007.57 1007.02 1006.20 1005.46 1005.00 1004.33 1003.98 1003.67 1003.33 1003.07 1003.12 1003.61 1004.00 1004.51 1004.95 1005.47 1006.13 1006.21 1005.97 1006.15 1007.13 1007.96 1008.66 1009.14 1009.38 1009.27 1009.40 1009.59 1009.64 1010.01 1009.99 1010.09 1010.32 1010.46 1010.39 1010.99 1011.21 1011.81 1012.09 1012.16 1012.35
1008.89 1008.40 1008.23 1007.63 1007.10 1006.56 1005.68 1004.53 1003.75 1003.37 1003.14 1003.24 1003.57 1004.35 1005.15 1005.37 1006.00 1006.42 1006.55 1006.52 1006.28 1006.39 1007.03 1008.25 1009.13 1009.55 1009.61 1009.72 1009.70 1009.78 1010.03 1010.13 1009.94 1009.78 1010.24 1010.54 1010.69 1010.91 1011.42 1011.71 1011.84 1011.92 1012.21
1009.20 1008.82 1008.49 1008.17 1007.77 1007.46 1006.67 1005.77 1004.54 1003.62 1003.63 1003.99 1004.57 1005.52 1006.17 1006.65 1006.82 1007.21 1007.20 1007.66 1007.13 1007.55 1008.03 1008.53 1009.47 1009.61 1009.66 1009.80 1010.01 1009.96 1009.96 1009.96 1010.13 1009.98 1010.39 1010.73 1010.83 1011.11 1011.41 1011.64 1011.99 1011.86 1012.34
1009.11 1008.77 1009.04 1009.06 1008.55 1008.07 1007.95 1007.59 1006.63 1006.05 1005.17 1005.01 1005.53 1005.98 1006.52 1007.30 1007.68 1007.82 1007.47 1007.79 1008.03 1007.77 1008.54 1008.97 1009.29 1009.54 1009.52 1010.01 1010.43 1009.98 1010.32 1010.29 1010.39 1010.42 1010.80 1010.86 1010.99 1011.17 1011.40 1011.59 1011.89 1012.00 1012.26
1008.81 1008.92 1009.77 1009.73 1009.41 1009.07 1008.68 1008.38 1008.32 1007.61 1007.21 1007.14 1007.11 1007.18 1008.01 1008.44 1008.42 1008.04 1008.27 1008.55 1008.83 1008.81 1008.85 1009.39 1009.21 1009.15 1009.61 1009.53 1010.10 1010.06 1010.48 1010.60 1010.48 1010.85 1011.12 1010.96 1010.98 1011.02 1011.34 1011.70 1011.93 1012.20 1012.29
1008.84 1009.43 1009.75 1010.15 1010.12 1009.94 1009.73 1009.60 1009.50 1009.18 1008.87 1009.16 1009.38 1009.47 1009.48 1009.50 1009.31 1009.02 1008.91 1009.05 1009.42 1009.55 1009.70 1009.75 1009.14 1008.81 1008.83 1009.47 1009.60 1009.72 1010.41 1010.74 1010.78 1011.12 1011.07 1011.03 1011.09 1011.14 1011.44 1011.62 1011.77 1011.96 1012.05
1009.18 1009.24 1009.58 1009.98 1010.51 1010.71 1010.53 1010.49 1010.62 1010.72 1010.78 1010.94 1010.96 1010.93 1010.80 1010.63 1010.39 1010.42 1010.46 1010.17 1010.20 1010.12 1009.99 1009.37 1008.81 1008.80 1008.96 1009.28 1009.52 1009.89 1010.14 1010.62 1010.90 1010.89 1010.96 1011.06 1010.98 1011.05 1011.30 1011.41 1011.48 1011.54 1011.72
1008.83 1009.18 1009.43 1009.92 1010.47 1010.77 1010.97 1011.18 1011.17 1011.21 1011.44 1011.59 1011.67 1011.64 1011.76 1011.73 1011.64 1011.69 1011.88 1012.02 1011.91 1011.34 1010.62 1010.20 1009.49 1009.20 1009.26 1009.27 1009.50 1009.75 1010.08 1010.74 1010.97 1010.92 1010.92 1011.02 1010.94 1010.97 1011.15 1011.25 1011.27 1011.51 1011.60
1009.14 1009.19 1009.19 1009.29 1009.81 1010.18 1010.48 1010.76 1011.24 1011.23 1011.41 1011.86 1011.82 1011.81 1011.65 1011.82 1011.67 1011.66 1011.57 1011.55 1011.38 1010.67 1010.25 1009.61 1009.03 1008.81 1008.90 1009.32 1009.53 1009.60 1009.91 1010.47 1010.69 1010.76 1010.84 1010.82 1010.82 1010.92 1011.07 1011.02 1011.15 1011.28 1011.48
1008.84 1008.89 1008.90 1008.92 1009.01 1009.17 1009.32 1009.49 1010.16 1010.74 1011.11 1011.12 1011.14 1011.05 1011.04 1011.11 1011.18 1011.05 1010.85 1010.43 1010.17 1009.80 1009.25 1008.96 1008.81 1008.74 1008.97 1009.11 1009.16 1009.39 1009.54 1009.67 1010.02 1010.23 1010.28 1010.53 1010.70 1010.89 1010.88 1010.90 1011.01 1011.02 1011.02
1008.28 1008.42 1008.77 1008.75 1008.67 1008.75 1008.82 1009.10 1009.32 1009.71 1009.94 1010.26 1010.43 1010.44 1010.63 1010.79 1010.65 1010.43 1010.33 1010.15 1009.84 1009.45 1008.87 1008.74 1008.73 1008.73 1008.73 1008.91 1009.11 1009.26 1009.60 1009.51 1009.90 1010.12 1010.28 1010.39 1010.53 1010.59 1010.61 1010.70 1010.74 1010.89 1010.90
1007.59 1007.91 1007.99 1008.07 1008.08 1008.17 1008.35 1008.24 1008.71 1008.95 1009.26 1009.47 1009.75 1009.77 1009.99 1010.00 1009.82 1009.39 1009.06 1008.99 1008.89 1008.59 1008.33 1008.37 1008.55 1008.58 1008.66 1008.78 1008.85 1009.13 1009.17 1009.50 1009.78 1009.95 1010.07 1010.29 1010.47 1010.60 1010.72 1010.58 1010.57 1010.64 1010.61
1007.16 1007.17 1007.39 1007.53 1007.86 1007.78 1007.78 1008.01 1008.23 1008.33 1008.43 1008.64 1008.78 1008.89 1008.98 1008.72 1008.85 1008.40 1008.03 1008.05 1008.13 1008.10 1008.17 1008.28 1008.43 1008.54 1008.60 1008.80 1008.83 1008.94 1009.11 1009.66 1009.66 1009.95 1010.17 1010.23 1010.38 1010.21 1010.34 1010.25 1010.19 1010.26 1010.30
1006.72 1006.61 1007.01 1007.27 1007.51 1007.46 1007.67 1007.53 1007.66 1007.83 1007.93 1007.94 1007.92 1007.86 1007.90 1007.94 1008.04 1008.08 1007.95 1008.04 1008.15 1008.27 1008.19 1008.37 1008.29 1008.45 1008.64 1008.75 1008.89 1009.50 1009.90 1009.81 1010.04 1010.17 1009.93 1010.15 1010.26 1010.26 1010.15 1009.93 1009.87 1009.87 1009.74
1006.18 1006.40 1006.87 1007.26 1007.31 1007.21 1007.22 1007.31 1007.20 1007.29 1007.39 1007.37 1007.51 1007.71 1007.67 1007.85 1007.96 1007.93 1007.76 1007.79 1007.79 1007.95 1008.06 1008.10 1008.23 1008.18 1008.37 1008.89 1009.33 1010.06 1010.25 1010.34 1010.41 1010.60 1010.44 1010.38 1010.29 1010.16 1009.89 1009.47 1009.39 1009.17 1008.96
Wind_Speed
10 9 5 9 10 7 14 15 14 12 9 10 7 6 6 9 9 9 9 8 9 7 5 5 6 5 5 7 5 7 9 5 8 3 1 8 4 9 11 9 7 7 6
4 9 10 11 8 5 5 8 10 11 8 9 8 7 6 8 7 8 9 9 6 7 6 5 5 3 4 6 8 9 10 7 6 6 4 3 4 6 4 5 3 5 6
3 1 2 2 4 5 8 8 9 8 8 8 8 8 9 8 9 7 6 6 5 4 4 3 3 3 4 7 9 8 5 6 4 1 3 3 2 3 4 5 6 5 4
7 7 5 5 6 7 8 7 8 7 8 8 8 8 9 7 7 6 6 5 4 4 2 2 2 1 8 6 4 4 2 1 2 3 2 2 5 3 4 5 3 4 3
7 7 7 7 6 8 9 9 11 8 8 8 9 10 8 9 8 9 7 5 6 5 5 4 3 2 2 6 2 3 4 4 6 6 4 3 2 3 3 1 4 2 3
7 8 8 9 10 9 9 10 9 11 9 8 9 9 10 8 11 10 10 7 7 8 7 5 6 3 2 3 5 4 3 3 4 3 2 3 2 3 3 3 2 2 2
6 7 8 8 9 10 11 10 9 9 8 6 8 10 10 8 9 14 12 7 9 9 7 7 8 8 8 4 4 7 8 6 5 5 7 3 4 3 4 3 2 2 2
8 8 9 9 10 9 10 12 11 7 9 9 9 7 4 3 10 11 10 8 7 7 7 7 4 6 3 6 7 6 5 6 1 7 7 6 5 5 3 3 3 2 2
10 11 12 12 13 13 13 12 11 10 8 10 8 7 6 7 10 8 9 6 7 8 5 3 6 6 2 4 5 10 7 4 8 12 11 10 11 8 3 3 2 3 3
12 12 12 12 12 12 13 13 11 10 12 8 8 6 12 8 12 12 8 3 8 6 6 6 11 7 3 6 5 6 8 6 6 5 5 5 6 5 4 2 4 3 3
13 12 12 12 12 13 12 11 11 11 10 10 6 4 9 11 9 11 8 3 7 7 6 5 4 6 3 3 4 3 6 8 8 7 6 6 5 5 4 5 5 4 4
12 13 14 15 14 11 11 10 10 10 9 11 5 2 2 2 6 6 2 6 5 8 7 6 5 4 2 3 6 5 7 1 4 4 5 5 4 6 5 6 5 2 0
11 11 11 10 11 12 13 13 9 9 7 5 2 4 6 6 7 11 7 2 1 9 9 10 11 8 8 7 7 4 1 3 5 2 5 4 5 5 4 2 5 6 5
9 9 10 10 10 10 9 9 9 4 3 4 7 8 6 8 6 5 5 6 15 12 15 10 6 5 3 4 1 1 1 4 4 4 4 4 4 3 2 3 1 1 6
6 8 10 9 10 9 8 12 8 9 6 5 6 7 9 8 4 6 7 5 3 9 7 6 6 3 4 2 3 4 3 1 3 3 1 3 3 3 3 2 1 0 1
7 9 8 9 9 10 8 8 24 25 27 24 20 12 8 9 8 15 12 12 13 9 3 2 2 4 6 5 4 4 3 2 4 2 2 2 2 2 4 1 2 1 1
8 8 8 9 7 9 10 10 10 16 26 26 21 21 17 12 15 15 16 15 14 10 5 5 6 4 4 4 4 4 5 4 3 3 1 1 0 4 4 3 3 3 2
7 8 8 9 8 6 7 9 9 9 9 8 13 12 13 15 15 16 17 13 6 4 5 8 1 4 4 4 4 3 4 4 3 2 1 2 1 1 1 2 3 4 3
5 5 6 8 8 9 8 6 6 7 7 6 3 4 5 6 5 4 7 2 5 7 4 5 4 2 2 3 5 5 5 3 2 3 2 3 1 0 2 2 0 1 3
3 3 2 3 8 9 8 9 7 7 8 3 2 1 1 3 4 4 5 6 6 6 6 3 4 2 4 4 4 5 4 5 4 4 4 3 1 1 3 3 3 2 2
2 4 5 4 4 4 4 7 7 7 6 6 6 7 8 2 1 4 5 6 6 7 5 2 4 2 4 3 3 1 2 4 4 4 4 3 3 2 3 2 4 3 2
5 3 4 4 2 2 2 3 4 5 4 4 4 6 10 4 4 7 7 7 8 9 5 4 2 2 3 3 3 2 3 2 4 3 3 3 2 3 3 3 1 2 2
4 5 4 3 4 3 5 1 5 6 5 5 4 5 5 8 9 10 10 10 9 6 3 4 3 0 2 3 3 1 1 3 0 2 2 2 1 1 4 3 3 5 3
4 5 6 3 4 3 2 5 2 0 3 7 8 7 7 7 8 5 2 2 3 2 1 2 2 0 1 0 2 2 3 5 3 3 5 4 5 5 6 7 6 6 6
4 5 3 2 1 2 4 3 3 5 5 4 2 3 4 2 2 1 2 2 1 4 4 3 1 3 4 3 4 5 6 9 6 4 2 3 5 8 8 8 8 8 9
5 4 4 4 4 2 1 1 2 2 1 3 3 2 1 4 4 5 4 4 4 4 5 3 4 6 3 7 9 9 6 7 5 7 3 3 5 7 7 8 10 8 9
Wind_Direction
163 139 171 275 273 235 232 238 244 257 265 277 277 239 234 196 201 195 198 225 210 213 234 246 266 265 275 280 266 263 267 254 242 262 54 129 123 167 201 199 181 166 182
80 163 195 215 243 281 259 249 244 242 243 251 254 258 240 219 217 200 204 222 194 225 228 240 263 306 328 307 289 265 250 256 252 257 212 179 159 210 195 186 95 53 129
2 235 214 235 233 235 245 248 255 272 272 256 256 236 235 220 216 203 186 221 241 224 236 233 255 291 305 302 286 270 259 259 249 219 255 208 157 144 112 71 68 113 119
5 348 348 324 319 295 290 274 242 238 252 253 256 246 233 214 207 177 175 193 236 236 206 239 173 328 313 315 330 5 312 109 52 44 221 26 64 360 62 105 74 66 74
347 323 315 313 302 305 303 302 299 271 262 253 250 248 218 193 190 177 178 178 220 180 196 213 190 60 277 298 351 63 65 66 97 100 90 84 87 67 102 288 98 96 48
324 316 317 321 307 288 289 290 294 303 277 272 257 243 202 193 185 185 166 206 210 189 199 195 135 149 104 21 76 87 132 116 101 105 102 129 97 92 45 44 67 53 35
281 282 282 281 291 298 294 275 274 280 267 269 287 259 217 208 160 177 174 216 197 190 192 186 194 148 144 127 77 87 77 95 131 132 132 119 115 139 144 128 99 133 145
320 321 319 312 302 295 297 301 284 267 280 245 244 252 213 144 157 172 181 208 185 193 200 198 174 138 96 157 175 139 91 53 101 129 124 133 124 148 155 127 130 138 200
336 334 328 323 313 305 296 290 292 284 271 278 250 209 151 164 172 185 161 200 178 175 155 99 137 119 67 38 127 116 113 98 49 79 96 104 111 106 90 136 179 193 203
335 327 315 310 304 298 300 294 283 288 279 267 254 204 145 177 180 177 176 208 163 132 113 76 93 113 90 48 146 149 139 159 123 100 91 89 120 125 145 82 35 356 351
325 313 336 328 315 303 301 292 288 280 278 256 228 235 172 172 186 174 176 243 161 148 145 126 103 109 123 74 26 156 133 138 165 160 163 163 164 164 127 83 55 28 11
351 354 348 344 337 322 307 295 290 290 282 252 226 170 247 168 138 129 207 246 229 157 156 122 110 139 157 104 84 89 98 147 201 176 184 175 139 98 93 101 112 102 88
4 355 347 347 354 342 333 322 293 271 254 191 126 94 87 69 59 59 88 96 114 106 115 117 125 135 117 93 118 117 326 247 237 135 93 79 80 94 95 109 175 192 184
15 8 4 360 2 4 354 337 342 354 79 101 113 102 100 88 77 59 74 89 86 89 103 122 130 141 142 113 167 198 76 38 28 56 85 93 106 135 157 113 302 124 113
29 21 20 9 4 20 37 17 2 12 16 106 109 113 121 103 97 79 101 80 78 108 114 125 149 172 148 155 254 108 91 94 83 55 98 130 123 153 126 113 82 12 193
32 43 44 30 22 24 23 34 43 47 46 44 49 68 68 78 76 68 64 60 46 25 105 168 205 161 202 161 170 147 133 44 83 150 182 160 185 143 99 198 151 185 169
52 44 67 53 41 42 33 36 44 44 50 43 39 43 45 59 42 33 35 38 26 17 4 284 233 182 125 138 139 111 110 106 104 294 15 139 78 115 140 229 175 198 200
113 106 85 86 76 48 60 66 55 50 50 42 29 39 33 39 35 29 23 14 5 345 317 326 1 105 126 153 132 112 115 144 193 219 193 290 143 151 181 235 217 212 99
60 65 86 97 100 105 91 79 79 72 64 63 61 62 49 72 96 75 44 11 313 298 263 274 309 345 238 155 126 103 91 60 63 29 347 302 271 232 249 260 332 163 127
119 122 177 169 163 138 132 119 112 117 124 115 117 172 218 227 192 174 195 215 232 253 245 270 235 136 93 95 122 127 148 171 181 195 217 240 230 237 284 283 231 273 179
208 206 155 228 132 112 196 133 151 158 170 188 195 208 216 210 309 321 309 296 287 292 303 17 338 146 141 158 125 119 198 187 196 189 179 196 228 254 281 275 271 255 34
230 227 197 214 202 183 140 123 175 163 184 197 219 225 215 226 216 238 247 248 250 257 249 207 201 175 184 165 174 239 280 19 77 68 47 18 334 260 244 250 302 316 270
233 216 173 172 204 162 214 179 181 195 189 217 213 231 208 221 232 239 228 227 231 233 258 180 193 257 140 153 104 113 299 90 161 242 240 250 225 338 325 297 266 263 231
232 183 195 149 45 331 94 172 149 266 184 213 219 226 225 228 243 237 360 82 186 208 208 152 117 116 310 60 279 5 49 26 61 69 26 14 320 305 273 270 267 290 284
282 143 132 92 163 237 181 243 131 187 191 249 218 248 159 132 20 237 215 133 354 101 88 340 256 111 88 15 22 108 60 62 52 4 353 325 296 292 283 285 282 275 275
190 130 122 165 216 284 31 327 245 334 267 228 202 277 45 144 204 247 250 213 212 208 231 217 228 241 172 103 111 116 107 98 83 47 359 307 290 288 287 288 285 284 274